[[{"header":{"parameterUnit":"m.s-1","parameterCategory":1,"la1":30.2991,"la2":30.254,"lo1":-89.0895,"lo2":-89.0444,"dy":0.0017,"dx":0.0017,"nx":28,"ny":28,"refTime":"2025-03-30T03:00:00:Z","depth":0,"parameterNumber":2,"parameterNumberName":"U-component_of_WINDS"},"data":[0,0,0,0,0,0,0,0,0,0,0,0,0,0,0,0,0,0,0,0,0,0,0,0,0,0,0,0,0,0,0,0,0,0,0,0,0,0,0,0,0,0,0,0,0,0,0,0,0,0,0,0,0,0,0,0,0,0,-4.5037,-4.5038,0,-4.5088,-4.5088,-4.5089,-4.5089,-4.5089,-4.5088,-4.5088,-4.5136,-4.5137,-4.5139,0,0,0,0,0,0,0,0,0,0,0,0,0,-4.4938,-4.494,-4.5037,-4.5038,-4.5039,-4.5088,-4.5088,-4.5089,-4.509,-4.5089,-4.5088,-4.5087,-4.5135,-4.5137,-4.5139,0,0,0,0,0,0,0,0,0,0,0,0,0,-4.4984,-4.494,-4.5037,-4.5045,-4.5046,-4.5088,-4.5088,-4.5089,-4.509,-4.5089,-4.5088,-4.5087,-4.5134,-4.5137,-4.514,-4.5176,0,0,-4.5148,-4.515,0,0,0,0,0,0,0,0,-4.4981,-4.4988,-4.5043,-4.5044,-4.5046,-4.5081,-4.5071,-4.5118,-4.509,-4.5073,-4.5088,-4.5086,-4.5118,-4.5122,-4.5134,-4.5178,-4.518,-4.5149,-4.515,-4.5151,-4.5152,0,0,0,0,0,0,0,-4.4978,-4.4985,-4.5057,-4.5044,-4.5045,-4.5045,-4.505,-4.508,-4.51,-4.5074,-4.5075,-4.5081,-4.5119,-4.5131,-4.5135,-4.5181,-4.5148,-4.5151,-4.5153,-4.5154,-4.5257,-4.5258,0,0,0,0,0,0,-4.4974,-4.4983,-4.5055,-4.5059,-4.5011,-4.5047,-4.5053,-4.5071,-4.51,-4.5103,-4.5081,-4.5081,-4.5127,-4.5131,-4.5136,-4.518,-4.5151,-4.5154,-4.5156,-4.5256,-4.5258,-4.5259,0,0,0,0,0,0,-4.4972,-4.498,-4.5053,-4.5021,-4.503,-4.505,-4.507,-4.5072,-4.5085,-4.5105,-4.5108,-4.509,-4.5126,-4.5132,-4.5166,-4.5182,-4.5155,-4.5158,-4.5255,-4.5257,-4.5258,-4.5268,0,0,0,0,0,0,-4.4969,-4.498,-4.4994,-4.5021,-4.5032,-4.5083,-4.5071,-4.5074,-4.509,-4.5089,-4.5115,-4.5118,-4.5126,-4.5162,-4.5169,-4.5185,-4.516,-4.5254,-4.5256,-4.5258,-4.5266,-4.5269,-4.5272,0,0,0,0,0,-4.4965,-4.4994,-4.4995,-4.5004,-4.5051,-4.5084,-4.509,-4.51,-4.5091,-4.5105,-4.5119,-4.5117,-4.5179,-4.5166,-4.5173,-4.519,-4.5253,-4.5255,-4.5258,-4.5264,-4.5269,-4.5272,0,0,0,0,0,0,-4.4967,-4.4998,-4.4999,-4.5038,-4.5058,-4.5084,-4.5102,-4.5104,-4.5127,-4.5125,-4.5135,-4.5141,-4.5174,-4.5186,-4.517,-4.5227,-4.5215,-4.5219,-4.5217,-4.5222,-4.5225,-4.522,-4.5162,0,0,0,0,0,-4.4972,-4.4998,-4.5023,-4.5054,-4.5065,-4.5082,-4.5097,-4.5103,-4.5124,-4.5133,-4.5149,-4.5169,-4.5193,-4.5208,-4.5232,-4.5269,-4.5273,-4.5284,-4.5287,-4.529,-4.5292,-4.5312,-4.5317,-4.5267,-4.5267,-4.5267,0,0,-4.4982,-4.5002,-4.5017,-4.5055,-4.5072,-4.5097,-4.5089,-4.5116,-4.5135,-4.5137,-4.5169,-4.5182,-4.5205,-4.524,-4.5257,-4.5251,-4.5308,-4.5293,-4.5295,-4.5296,-4.5315,-4.532,-4.5324,-4.5268,-4.5268,-4.5268,0,0,-4.5013,-4.5031,-4.5059,-4.5077,-4.5103,-4.5115,-4.5121,-4.5148,-4.5156,-4.519,-4.5192,-4.5214,-4.5255,-4.5271,-4.5285,-4.5324,-4.5322,-4.5331,-4.5346,-4.5365,-4.5369,-4.5373,-4.5385,-4.5389,-4.5334,-4.5334,-4.5334,0,-4.5021,-4.5061,-4.5073,-4.5101,-4.5117,-4.5121,-4.5149,-4.5165,-4.5197,-4.5208,-4.5202,-4.5254,-4.527,-4.5309,-4.5318,-4.533,-4.5337,-4.5327,-4.5368,-4.5371,-4.5375,-4.5387,-4.5391,-4.5335,-4.5335,-4.5335,-4.5335,0,-4.5069,-4.5097,-4.5116,-4.5148,-4.5167,-4.5194,-4.521,-4.5227,-4.5232,-4.5244,-4.5277,-4.5297,-4.5324,-4.5335,-4.5339,-4.5374,-4.537,-4.5366,-4.5354,-4.538,-4.5391,-4.5396,-4.5336,-4.5336,-4.5335,-4.5335,0,0,-4.51,-4.514,-4.5147,-4.5161,-4.5191,-4.5212,-4.524,-4.5268,-4.5282,-4.5304,-4.5326,-4.5362,-4.5359,-4.5375,-4.5381,-4.5399,-4.5426,-4.5392,-4.5393,-4.5396,-4.5465,-4.5466,-4.5471,-4.5427,-4.5428,-4.5429,-4.5462,0,-4.5132,-4.5182,-4.5195,-4.5237,-4.5262,-4.5268,-4.5292,-4.5312,-4.5324,-4.5346,-4.5359,-4.5384,-4.5379,-4.5388,-4.5406,-4.5419,-4.544,-4.5417,-4.5446,-4.5447,-4.5438,-4.5477,-4.5479,-4.5509,-4.5467,-4.5468,-4.5468,0,-4.5177,-4.5201,-4.5246,-4.5273,-4.5284,-4.5306,-4.5332,-4.5354,-4.5377,-4.5385,-4.5403,-4.5408,-4.5436,-4.5425,-4.5463,-4.5447,-4.546,-4.5469,-4.547,-4.5471,-4.5457,-4.5477,-4.5519,-4.5523,-4.5476,-4.5475,-4.5474,0,-4.5192,-4.5237,-4.5269,-4.5282,-4.5315,-4.533,-4.5344,-4.5367,-4.5383,-4.5406,-4.5416,-4.5442,-4.5456,-4.5476,-4.5488,-4.5478,-4.5524,-4.5514,-4.553,-4.5529,-4.5537,-4.5536,-4.558,-4.5549,-4.5549,-4.5549,-4.5549,0,-4.5226,-4.5253,-4.5277,-4.5297,-4.5327,-4.5341,-4.537,-4.5384,-4.5405,-4.5427,-4.5434,-4.5454,-4.5469,-4.5491,-4.5501,-4.553,-4.5537,-4.5543,-4.5545,-4.5541,-4.554,-4.5548,-4.5545,-4.555,-4.555,-4.555,-4.5549,0,-4.5248,-4.5265,-4.5301,-4.533,-4.5338,-4.5358,-4.5383,-4.5401,-4.5415,-4.5442,-4.545,-4.547,-4.5496,-4.5511,-4.5544,-4.5551,-4.5583,-4.5584,-4.5575,-4.5575,-4.559,-4.5588,-4.5638,-4.5645,-4.5612,-4.5612,-4.5612,0,-4.5267,-4.5288,-4.532,-4.5335,-4.535,-4.5375,-4.5392,-4.5408,-4.5425,-4.5454,-4.5469,-4.5496,-4.5518,-4.556,-4.5577,-4.5603,-4.5604,-4.562,-4.5607,-4.5603,-4.5602,-4.56,-4.5601,-4.5621,-4.5621,-4.5622,-4.5622,0,-4.5299,-4.5307,-4.5331,-4.5359,-4.538,-4.5402,-4.5424,-4.5437,-4.5456,-4.5474,-4.5502,-4.552,-4.5554,-4.5581,-4.5608,-4.5621,-4.5624,-4.5626,-4.5631,-4.5626,-4.5619,-4.5622,-4.5579,-4.5624,-4.5624,-4.5624,-4.5624,-4.5624,-4.5318,-4.5337,-4.5363,-4.539,-4.5409,-4.5429,-4.5449,-4.5465,-4.5489,-4.5519,-4.5527,-4.5556,-4.5579,-4.5615,-4.563,-4.5652,-4.5649,-4.5656,-4.5658,-4.5659,-4.5658,-4.5618,-4.5657,-4.5657,-4.5657,-4.5657,-4.5657,0,-4.5349,-4.5366,-4.5392,-4.5423,-4.5444,-4.5448,-4.5473,-4.549,-4.5516,-4.5538,-4.556,-4.5592,-4.5618,-4.5638,-4.5664,-4.5678,-4.568,-4.5685,-4.5682,-4.5685,-4.566,-4.5653,-4.5682,-4.5682,-4.5682,-4.5682,-4.5682,-4.5682,-4.5368,-4.5399,-4.541,-4.5451,-4.5468,-4.5497,-4.5511,-4.553,-4.5548,-4.5583,-4.5605,-4.5619,-4.564,-4.5668,-4.5692,-4.5697,-4.5706,-4.5709,-4.5714,-4.569,-4.5687,-4.5685,-4.5677,-4.5712,-4.5712,-4.5737,-4.5738,-4.5738]},{"header":{"parameterUnit":"m.s-1","parameterCategory":1,"la1":30.2991,"la2":30.254,"lo1":-89.0895,"lo2":-89.0444,"dy":0.0017,"dx":0.0017,"nx":28,"ny":28,"refTime":"2025-03-30T03:00:00:Z","depth":0,"parameterNumber":3,"parameterNumberName":"V-component_of_WINDS"},"data":[0,0,0,0,0,0,0,0,0,0,0,0,0,0,0,0,0,0,0,0,0,0,0,0,0,0,0,0,0,0,0,0,0,0,0,0,0,0,0,0,0,0,0,0,0,0,0,0,0,0,0,0,0,0,0,0,0,0,3.7606,3.7606,0,3.7595,3.7595,3.7595,3.7591,3.7591,3.7591,3.7591,3.7579,3.7579,3.7578,0,0,0,0,0,0,0,0,0,0,0,0,0,3.7626,3.7626,3.7606,3.7606,3.7606,3.7595,3.7595,3.7595,3.7591,3.7591,3.7591,3.7592,3.7579,3.7579,3.7578,0,0,0,0,0,0,0,0,0,0,0,0,0,3.7616,3.7625,3.7606,3.7603,3.7603,3.7595,3.7595,3.7595,3.7591,3.7591,3.7591,3.7592,3.7579,3.7579,3.7578,3.7573,0,0,3.7577,3.7576,0,0,0,0,0,0,0,0,3.7617,3.7616,3.7604,3.7603,3.7603,3.7595,3.7598,3.7588,3.7591,3.7596,3.7591,3.7592,3.7584,3.7583,3.7581,3.7573,3.7572,3.7577,3.7576,3.7576,3.7576,0,0,0,0,0,0,0,3.7618,3.7616,3.7602,3.7603,3.7603,3.7603,3.7601,3.7596,3.759,3.7595,3.7595,3.7594,3.7584,3.7582,3.7581,3.7572,3.7577,3.7576,3.7576,3.7576,3.7563,3.7563,0,0,0,0,0,0,3.7619,3.7617,3.7602,3.7602,3.761,3.7602,3.7601,3.7597,3.759,3.7589,3.7594,3.7594,3.7582,3.7581,3.758,3.7576,3.7576,3.7575,3.7575,3.7563,3.7563,3.7563,0,0,0,0,0,0,3.7619,3.7617,3.7603,3.7609,3.7607,3.7602,3.7598,3.7597,3.7594,3.7588,3.7587,3.7592,3.7583,3.7581,3.7576,3.7576,3.7575,3.7575,3.7563,3.7563,3.7563,3.7567,0,0,0,0,0,0,3.762,3.7618,3.7615,3.7609,3.7607,3.7598,3.7598,3.7597,3.7594,3.7593,3.7587,3.7586,3.7582,3.7577,3.7576,3.7575,3.7574,3.7563,3.7563,3.7563,3.7566,3.7567,3.7567,0,0,0,0,0,3.762,3.7615,3.7615,3.7613,3.7603,3.7598,3.7597,3.7593,3.7594,3.7592,3.7588,3.7586,3.7576,3.7576,3.7575,3.7574,3.7563,3.7563,3.7563,3.7566,3.7567,3.7567,0,0,0,0,0,0,3.762,3.7614,3.7614,3.7606,3.7603,3.7597,3.7594,3.7593,3.7589,3.7589,3.7585,3.7583,3.7579,3.7576,3.7577,3.7571,3.757,3.7569,3.7573,3.7573,3.7573,3.7574,3.7574,0,0,0,0,0,3.7619,3.7615,3.761,3.7605,3.7603,3.7599,3.7597,3.7595,3.7591,3.7589,3.7585,3.7581,3.7578,3.7575,3.7571,3.7566,3.7566,3.7565,3.7566,3.7566,3.7566,3.7566,3.7566,3.7563,3.7563,3.7563,0,0,3.7617,3.7614,3.7611,3.7605,3.7601,3.7598,3.7598,3.7593,3.7591,3.7588,3.7584,3.7581,3.7577,3.7573,3.7571,3.757,3.7567,3.7566,3.7566,3.7566,3.7566,3.7566,3.7566,3.7563,3.7563,3.7563,0,0,3.7612,3.7608,3.7604,3.7602,3.7598,3.7596,3.7596,3.7591,3.759,3.7586,3.7584,3.7582,3.7575,3.7573,3.7571,3.757,3.7568,3.7569,3.7569,3.757,3.757,3.757,3.7572,3.7572,3.7568,3.7568,3.7568,0,3.7609,3.7604,3.7602,3.7599,3.7597,3.7596,3.7593,3.7591,3.7586,3.7585,3.7585,3.7579,3.7575,3.7572,3.7572,3.757,3.7571,3.7569,3.757,3.757,3.7571,3.7572,3.7572,3.7568,3.7568,3.7568,3.7568,0,3.7603,3.76,3.7597,3.7594,3.7592,3.7589,3.7587,3.7586,3.7585,3.7584,3.7582,3.7578,3.7575,3.7574,3.7572,3.7572,3.7572,3.7571,3.757,3.7571,3.7572,3.7573,3.7569,3.7569,3.7569,3.7569,0,0,3.7594,3.7593,3.7592,3.7592,3.759,3.7587,3.7586,3.7584,3.7583,3.7581,3.758,3.7576,3.7577,3.7575,3.7573,3.7573,3.7576,3.7573,3.7573,3.7575,3.7577,3.7579,3.7579,3.7575,3.7575,3.7575,3.7578,0,3.7589,3.7586,3.7586,3.7583,3.7582,3.7583,3.7581,3.758,3.758,3.7579,3.7579,3.7577,3.7576,3.7576,3.7576,3.7575,3.7576,3.7575,3.7575,3.7575,3.7577,3.7579,3.758,3.7583,3.7579,3.7579,3.7579,0,3.7582,3.7582,3.758,3.7581,3.758,3.7579,3.7579,3.7578,3.7578,3.7578,3.7578,3.7578,3.7577,3.7577,3.7578,3.7577,3.7578,3.7578,3.7578,3.7578,3.7577,3.758,3.7583,3.7584,3.7579,3.7579,3.7579,0,3.7579,3.7577,3.7576,3.7576,3.7577,3.7577,3.7577,3.7577,3.7577,3.7578,3.7578,3.7578,3.7578,3.7579,3.7579,3.7579,3.7581,3.758,3.7582,3.7582,3.7582,3.7582,3.7586,3.7581,3.7581,3.7581,3.7581,0,3.7573,3.7572,3.7575,3.7574,3.7574,3.7575,3.7575,3.7576,3.7577,3.7577,3.7578,3.7578,3.7579,3.758,3.758,3.7582,3.7582,3.7583,3.7583,3.7583,3.7583,3.7583,3.7583,3.7581,3.7581,3.7581,3.7581,0,3.7568,3.757,3.7569,3.7572,3.7572,3.7572,3.7575,3.7575,3.7576,3.7577,3.7577,3.7579,3.7581,3.7582,3.7583,3.7584,3.7587,3.7586,3.7587,3.7587,3.759,3.759,3.7594,3.7596,3.7589,3.7589,3.7589,0,3.7565,3.7564,3.7568,3.7569,3.757,3.7571,3.7572,3.7574,3.7575,3.7577,3.7578,3.758,3.7582,3.7585,3.7587,3.7589,3.7589,3.7591,3.7589,3.7591,3.7591,3.7592,3.7593,3.7591,3.7591,3.7591,3.7591,0,3.7559,3.7561,3.7563,3.7566,3.7567,3.7569,3.7571,3.7572,3.7575,3.7577,3.7579,3.7581,3.7585,3.7587,3.7591,3.7592,3.7593,3.7592,3.7593,3.7593,3.7594,3.7595,3.7588,3.7592,3.7592,3.7591,3.7591,3.7591,3.7556,3.7557,3.756,3.7563,3.7565,3.7568,3.757,3.7572,3.7575,3.7578,3.758,3.7583,3.7587,3.7591,3.7593,3.7597,3.7596,3.7597,3.7597,3.7598,3.7599,3.7594,3.7597,3.7597,3.7597,3.7597,3.7597,0,3.7552,3.7555,3.7557,3.7562,3.7565,3.7567,3.757,3.7572,3.7576,3.7579,3.7582,3.7587,3.7591,3.7594,3.7599,3.7601,3.7602,3.7602,3.7602,3.7603,3.7598,3.7597,3.7602,3.7602,3.7602,3.7602,3.7602,3.7602,3.755,3.7552,3.7555,3.756,3.7564,3.7568,3.757,3.7574,3.7577,3.7583,3.7586,3.7589,3.7593,3.7599,3.7603,3.7604,3.7606,3.7607,3.7608,3.7603,3.7603,3.7602,3.7602,3.7607,3.7607,3.7613,3.7613,3.7613]}]]